Location: Boursonne
(49.2024°N, 3.0468°E)
Time: 22:12:52
(UTC+00:00)

Lacrosse 4 Rocket - Pass Details

Date: 03 March 2021
Orbit: 537 x 620 km, 68.0° (Epoch: 20 April)

Event Time Altitude Azimuth Distance (km) Brightness Sun altitude
Rises 19:10:23 0° 179° (S) 2,819 4.8 -16.4°
Reaches altitude 10° 19:12:51 10° 167° (SSE) 1,936 3.9 -16.8°
Enters shadow 19:14:14 17° 154° (SSE) 1,522 3.2 -17.1°
